TimeCDT,TemperatureF,Dew PointF,Humidity,Sea Level PressureIn,VisibilityMPH,Wind Direction,Wind SpeedMPH,Gust SpeedMPH,PrecipitationIn,Events,Conditions,WindDirDegrees,DateUTC
12:52 AM,39.0,35.1,86,30.00,10.0,Calm,Calm,-,N/A,,Clear,0,2011-10-23 05:52:00
1:52 AM,39.0,35.1,86,30.01,10.0,Calm,Calm,-,N/A,,Clear,0,2011-10-23 06:52:00
2:52 AM,37.0,34.0,89,30.01,9.0,Calm,Calm,-,N/A,,Clear,0,2011-10-23 07:52:00
3:52 AM,37.9,35.1,89,30.00,8.0,Calm,Calm,-,N/A,,Clear,0,2011-10-23 08:52:00
4:52 AM,37.9,35.1,89,30.00,9.0,Calm,Calm,-,N/A,,Clear,0,2011-10-23 09:52:00
5:52 AM,36.0,34.0,93,30.00,8.0,Calm,Calm,-,N/A,,Clear,0,2011-10-23 10:52:00
6:52 AM,36.0,34.0,93,30.01,8.0,Calm,Calm,-,N/A,,Clear,0,2011-10-23 11:52:00
7:52 AM,36.0,33.1,89,30.00,8.0,Calm,Calm,-,N/A,,Clear,0,2011-10-23 12:52:00
8:52 AM,43.0,37.9,82,30.00,7.0,Calm,Calm,-,N/A,,Scattered Clouds,0,2011-10-23 13:52:00
9:52 AM,51.1,42.1,71,29.99,10.0,Calm,Calm,-,N/A,,Clear,0,2011-10-23 14:52:00
10:52 AM,62.6,44.6,52,29.97,10.0,Calm,Calm,-,N/A,,Clear,0,2011-10-23 15:52:00
11:52 AM,64.4,41.0,42,29.96,7.0,WSW,6.9,-,N/A,,Overcast,240,2011-10-23 16:52:00
12:52 PM,64.0,42.1,45,29.96,10.0,SW,8.1,-,N/A,,Overcast,230,2011-10-23 17:52:00
1:52 PM,66.9,44.1,44,29.92,10.0,SW,8.1,-,N/A,,Clear,220,2011-10-23 18:52:00
2:52 PM,69.1,44.1,40,29.89,10.0,SSW,12.7,18.4,N/A,,Scattered Clouds,200,2011-10-23 19:52:00
3:52 PM,68.0,45.0,43,29.88,10.0,SW,12.7,-,N/A,,Clear,220,2011-10-23 20:52:00
4:52 PM,70.0,44.1,39,29.86,10.0,SW,10.4,-,N/A,,Clear,220,2011-10-23 21:52:00
5:52 PM,66.0,44.1,45,29.86,10.0,SSW,9.2,-,N/A,,Clear,210,2011-10-23 22:52:00
6:52 PM,62.1,44.1,52,29.86,10.0,SSW,6.9,-,N/A,,Clear,210,2011-10-23 23:52:00
7:52 PM,62.1,43.0,50,29.85,10.0,SSW,10.4,-,N/A,,Clear,210,2011-10-24 00:52:00
8:52 PM,62.1,43.0,50,29.83,10.0,SSW,11.5,-,N/A,,Clear,210,2011-10-24 01:52:00
9:52 PM,62.1,42.1,48,29.83,10.0,SW,13.8,-,N/A,,Clear,220,2011-10-24 02:52:00
10:45 PM,62.6,42.8,48,29.89,10.0,WNW,11.5,-,N/A,,Mostly Cloudy,300,2011-10-24 03:45:00
10:52 PM,62.1,43.0,50,29.89,10.0,WNW,10.4,-,N/A,,Mostly Cloudy,300,2011-10-24 03:52:00
11:52 PM,62.6,46.4,55,29.89,10.0,West,9.2,-,N/A,,Overcast,280,2011-10-24 04:52:00